Location: ???????
(56.2167°N, 38.0500°E)
Time: 03:32:35
(UTC+00:00)

Cosmos 2173 Rocket - Pass Details

Date: 19 May 2025
Orbit: 944 x 999 km, 83.0° (Epoch: 15 June)

Event Time Altitude Azimuth Distance (km) Brightness Sun altitude
Rises 21:23:11 0° 348° (NNW) 3,736 8.8 -13.8°
Reaches altitude 10° 21:25:45 10° 350° (N) 2,780 7.8 -13.8°
Maximum altitude 21:32:09 78° 76° (ENE) 1,021 4.1 -13.8°
Enters shadow 21:37:12 17° 162° (SSE) 2,278 5.4 -13.8°
